Theta_e
304 304 303 302 302 303 304 304 304 304 304 304 304 304 305 305 304 303 304 305 305 305 306 307 306 305 305 305 304 304 304 304 304 304 304 307 308 307 308 309 308 310 312 311 308 308 308 307 308 307 309 314 316 317 317 318 319 318 317 315 315 314 314 316 318 316 316 318 316 316 315 316 337 348 344 346 347 348 348 348 348 347 349 350 350 349 348 348
304 304 304 303 302 302 303 303 304 304 304 304 304 304 304 304 303 303 304 305 305 305 306 306 306 306 305 305 304 304 304 304 304 304 306 307 307 307 308 309 308 309 311 311 309 308 308 308 307 307 311 316 316 316 317 318 318 318 318 316 316 315 313 314 316 315 315 316 315 315 316 315 329 344 344 347 348 349 351 350 349 350 351 350 350 348 348 348
305 304 304 304 303 303 302 302 303 303 303 303 303 304 304 304 304 303 303 304 305 305 305 306 306 307 306 305 304 304 304 304 304 305 307 306 306 307 307 309 310 309 309 311 310 308 308 308 307 309 313 316 315 316 316 316 318 318 318 317 317 315 313 314 314 315 315 315 314 314 317 315 322 337 345 346 346 349 351 351 350 351 351 350 350 348 348 348
306 305 304 304 304 304 303 303 303 303 303 303 303 304 304 304 304 304 304 304 305 304 305 305 305 306 306 304 304 303 304 305 305 306 307 307 307 307 307 308 311 310 309 309 309 308 309 310 309 310 313 314 313 314 316 316 317 316 317 319 318 314 314 316 315 316 316 315 315 315 317 316 322 338 345 345 347 349 349 350 350 350 351 350 350 349 349 349
307 306 306 304 304 304 304 303 303 303 303 303 302 303 303 303 303 304 305 304 304 304 304 305 305 305 306 304 303 303 305 306 307 309 309 309 308 307 307 307 311 312 310 309 308 309 311 313 312 311 311 312 312 314 315 316 317 316 316 317 317 315 315 317 317 317 316 315 315 315 316 318 329 344 345 342 348 349 347 350 349 349 350 350 350 349 349 350
307 307 307 306 305 305 305 304 304 303 303 303 302 301 302 302 303 304 304 305 304 305 304 304 305 305 305 304 302 303 305 307 309 311 310 311 310 308 307 307 311 312 310 309 309 310 313 313 312 310 309 311 313 314 315 316 316 317 317 315 315 315 315 316 317 316 316 316 314 315 316 319 334 344 341 342 347 346 347 350 351 350 350 350 349 349 350 350
307 307 307 307 306 306 305 305 304 304 303 303 302 301 301 302 302 303 304 305 304 305 304 303 304 304 305 303 302 302 303 307 310 311 310 311 311 309 308 307 310 311 311 310 309 311 311 311 310 309 310 312 312 313 315 315 315 317 317 315 315 315 314 315 317 316 317 316 314 316 315 320 335 342 341 346 348 348 349 350 351 351 350 350 350 349 350 350
306 307 307 307 307 306 305 305 304 304 304 303 302 300 301 302 302 303 303 304 304 304 304 304 303 304 304 302 302 303 303 306 308 310 310 310 310 309 307 307 308 311 311 310 309 310 309 308 309 309 311 313 313 313 314 315 315 315 316 315 315 316 315 316 316 316 317 316 316 316 316 326 340 344 345 349 350 350 351 351 351 351 351 350 350 350 350 350
305 306 306 307 307 307 306 305 304 304 304 303 302 300 301 302 301 302 302 303 303 303 304 304 303 304 303 302 303 304 304 306 307 309 310 309 310 310 307 307 308 310 311 310 310 310 309 307 308 311 312 312 312 313 313 315 316 315 315 315 314 315 315 316 315 316 317 316 317 315 323 338 343 345 347 348 350 350 351 351 351 350 350 350 350 350 349 350
304 304 305 306 306 306 306 306 305 304 304 304 302 299 301 302 300 300 301 302 303 303 304 303 304 304 303 302 304 305 305 306 306 306 309 309 310 310 308 307 307 308 310 310 310 310 309 307 308 310 311 312 312 313 313 314 316 315 314 314 314 314 314 315 314 316 316 316 316 314 328 339 337 344 349 348 350 351 350 350 350 350 350 350 350 348 347 349
303 304 304 305 305 306 306 306 305 304 304 304 303 300 301 302 301 299 300 302 303 303 303 303 304 303 302 303 303 306 305 307 307 306 307 307 308 310 310 308 306 308 309 309 309 309 309 307 308 309 310 311 311 311 312 313 314 313 313 313 313 313 312 313 313 316 316 316 318 314 322 327 328 346 350 348 350 349 350 350 350 351 350 350 349 348 347 348
300 302 303 304 304 305 306 306 306 305 305 304 303 302 302 301 301 300 299 301 302 303 302 303 303 302 302 302 304 306 305 307 308 306 306 306 308 309 310 310 309 308 309 309 309 308 308 308 308 309 311 311 310 312 312 312 311 311 312 314 315 313 313 314 312 315 316 316 319 315 317 317 323 344 349 347 350 349 349 349 349 349 348 349 347 347 347 346
298 300 302 302 303 304 305 306 306 305 305 304 304 303 302 301 300 300 299 300 301 302 302 303 303 303 302 302 304 303 305 306 307 307 306 306 307 308 309 310 310 310 309 309 309 308 309 308 308 309 310 309 309 311 311 310 310 312 312 312 315 314 314 315 312 315 315 316 318 315 318 317 321 339 348 348 349 348 348 349 348 347 346 347 347 346 346 345
297 298 300 301 302 303 304 305 306 306 305 304 304 303 302 301 300 300 299 299 301 301 302 302 303 303 302 303 301 302 303 304 306 307 307 306 306 308 310 309 308 309 309 308 308 308 308 308 308 308 308 309 309 310 310 310 311 312 311 313 315 312 317 318 312 314 315 315 317 315 317 317 323 339 348 347 348 348 348 348 347 345 343 346 346 345 345 344
297 298 298 300 301 302 303 304 305 305 305 305 304 303 303 301 300 300 299 299 300 301 302 301 301 301 301 302 300 302 303 302 305 307 307 307 306 308 311 310 309 309 309 309 309 308 308 307 307 307 307 308 309 310 311 311 314 315 311 315 317 312 318 320 312 314 316 315 315 316 318 316 324 340 346 347 348 347 347 347 347 345 343 345 345 344 344 343
296 298 298 299 300 300 302 303 304 305 305 305 304 304 303 301 300 300 299 300 300 301 302 301 300 300 301 303 302 303 303 302 305 306 307 307 307 309 311 311 311 311 310 310 311 309 307 307 306 307 307 309 310 310 311 311 316 320 314 317 319 312 315 317 312 312 314 316 314 315 318 316 323 337 343 346 347 347 347 346 346 344 344 344 344 343 343 343
296 297 297 298 299 299 300 302 303 304 305 305 304 304 303 301 300 300 299 300 301 301 300 301 301 301 303 304 303 304 304 304 304 304 306 307 308 309 310 310 311 312 312 312 312 310 308 307 307 308 308 309 310 310 311 311 314 318 314 314 317 314 313 314 314 313 311 316 315 314 319 316 322 333 337 338 342 346 346 346 345 343 344 343 343 343 342 342
296 297 297 297 298 299 300 301 303 303 304 305 304 304 303 301 300 300 299 300 302 301 300 301 301 302 304 303 302 304 304 304 305 304 305 306 307 308 308 309 309 310 311 312 312 310 309 309 308 311 310 309 310 309 311 311 312 315 314 315 315 313 313 313 315 314 312 317 315 315 317 313 322 335 336 333 336 344 345 344 344 342 342 343 342 342 341 342
297 297 297 297 298 298 299 301 302 303 304 304 304 303 302 301 300 300 299 299 302 302 302 303 302 302 304 303 302 304 304 304 305 305 305 305 306 307 307 308 308 308 310 311 312 311 311 311 310 311 310 309 309 308 310 312 313 315 317 320 318 314 314 314 316 315 313 317 314 317 321 318 327 336 334 330 331 340 341 339 340 341 341 341 341 341 342 343
297 297 297 297 297 298 300 301 302 303 303 304 303 303 302 300 300 302 301 301 301 302 301 302 301 301 302 302 301 304 305 304 306 306 305 306 306 307 307 308 307 307 310 312 313 312 312 314 312 311 311 309 309 308 310 312 313 312 314 317 315 313 314 314 315 314 314 315 316 329 339 336 339 338 331 330 331 334 335 334 335 339 340 340 341 342 343 343
297 297 297 297 298 298 300 301 301 302 303 303 303 302 301 300 301 302 302 302 302 302 302 301 301 301 301 301 302 303 304 304 305 307 307 307 307 308 308 307 307 308 309 311 312 312 313 314 313 312 313 311 310 311 312 312 312 311 312 314 313 313 314 314 315 314 313 315 322 334 343 338 340 340 334 336 336 332 333 334 335 338 340 340 341 342 342 341
297 297 297 297 298 298 299 301 301 302 302 303 303 302 301 300 301 301 301 301 302 302 302 303 303 303 302 302 303 303 303 304 305 306 307 307 308 308 308 307 308 308 308 310 312 313 313 314 313 312 312 311 310 312 313 311 311 311 311 312 313 313 313 313 316 316 313 318 330 336 341 337 337 338 335 338 339 337 337 338 338 339 339 339 340 340 339 340
298 297 297 297 298 299 300 301 301 301 302 302 303 302 300 300 300 300 300 301 301 301 302 303 303 304 304 303 304 304 304 304 304 306 307 308 308 308 307 307 308 308 307 309 313 313 313 313 313 311 310 311 311 311 312 312 312 313 312 312 313 313 313 314 316 320 322 327 334 337 339 339 338 337 337 338 338 338 338 339 339 339 339 339 338 338 339 340
298 297 297 297 298 299 300 301 301 301 301 302 302 301 300 300 300 300 300 300 301 302 303 303 303 304 304 304 304 304 304 304 304 305 307 308 307 307 308 307 307 307 306 308 311 312 313 312 311 311 311 311 311 311 312 313 312 313 314 313 312 312 313 315 314 320 331 333 334 336 338 339 339 339 339 336 334 333 333 334 336 337 337 338 337 338 339 339
298 297 297 298 298 299 300 301 301 301 301 302 301 300 301 302 301 301 301 302 303 303 303 303 304 304 304 304 305 304 304 304 304 304 306 308 308 308 308 307 307 307 306 307 309 311 312 311 311 312 312 311 311 311 311 312 312 312 314 313 312 312 313 315 315 320 332 334 332 333 337 340 340 340 340 335 333 332 330 331 334 335 335 336 337 338 337 336
297 297 298 298 299 299 300 301 301 301 301 301 301 301 302 302 302 301 302 303 304 304 303 304 304 304 304 305 305 305 305 305 305 304 305 307 308 308 308 307 307 307 306 306 308 310 311 311 311 312 312 311 311 311 310 311 311 312 314 313 311 313 313 313 315 318 325 331 329 325 332 340 339 339 340 336 334 332 330 332 333 333 333 333 335 336 335 334
298 298 298 298 299 299 301 301 300 300 300 301 301 301 301 301 302 302 303 304 306 305 303 304 304 305 305 305 305 305 305 306 305 305 305 307 308 308 308 308 307 306 306 307 308 309 311 312 311 312 312 312 311 311 310 311 311 312 314 312 310 312 313 313 313 314 318 322 320 321 331 339 340 340 337 335 334 333 332 334 332 331 331 331 332 334 334 333
298 298 298 299 299 300 301 300 299 300 300 300 301 301 300 300 302 303 303 305 306 304 304 304 304 305 305 306 305 304 305 306 305 306 306 307 307 307 308 307 307 307 306 307 308 310 311 312 312 311 312 312 311 312 312 310 311 313 314 312 313 312 312 314 313 314 319 317 314 325 335 338 340 339 333 332 334 334 333 333 331 330 329 330 331 331 331 330
298 298 299 299 300 300 300 300 300 300 300 300 299 299 299 301 303 303 303 306 306 303 304 304 304 306 306 306 305 304 305 306 306 307 307 307 307 307 308 307 306 307 306 306 310 312 311 311 311 311 311 312 312 313 313 310 311 313 313 314 314 313 313 313 313 313 316 316 315 325 335 337 339 337 333 333 334 333 332 331 330 330 329 329 329 329 329 327
299 299 299 300 300 300 300 300 300 300 300 299 298 299 300 302 303 302 302 306 307 305 304 304 304 306 307 306 305 304 304 306 306 307 307 307 308 307 307 307 306 306 306 306 309 312 311 310 312 311 311 312 313 313 311 310 312 311 312 314 312 315 317 315 319 318 315 316 317 323 331 334 337 337 334 334 334 332 331 331 330 329 329 329 328 327 327 326
299 299 299 300 300 300 300 300 300 300 300 300 299 299 301 302 303 304 305 305 306 306 304 303 305 307 307 306 305 304 304 305 306 306 307 307 307 306 306 307 305 306 306 306 307 309 310 311 312 312 312 312 313 313 310 310 311 311 313 313 312 318 319 313 317 317 315 319 319 322 328 329 333 338 334 333 334 332 331 331 330 329 328 327 327 326 326 326
299 299 300 300 300 300 300 300 300 300 300 300 300 300 302 303 304 305 306 306 308 309 306 304 305 307 307 306 305 304 304 306 305 306 307 306 307 306 305 306 305 305 305 306 308 308 309 312 311 312 313 312 313 313 311 311 310 311 314 314 313 316 315 313 316 316 318 322 318 320 326 327 331 334 331 333 334 331 329 329 328 328 328 327 326 325 325 326
298 298 299 300 300 300 300 299 299 299 300 300 300 301 303 304 304 304 304 307 310 310 308 307 305 307 307 305 305 304 304 306 306 306 306 306 307 306 305 306 306 309 310 309 309 308 308 311 311 311 313 312 313 313 312 312 311 310 312 313 314 315 314 314 316 317 319 320 318 319 323 328 332 331 329 332 332 329 328 327 327 327 326 326 325 324 324 324
298 298 298 298 299 299 299 299 298 298 300 301 301 303 304 304 304 305 305 307 310 308 308 309 307 306 306 305 305 304 305 306 305 306 307 306 306 305 306 305 304 313 318 311 309 309 308 311 312 311 312 312 312 312 312 313 312 309 311 313 314 317 318 316 317 318 316 317 321 323 323 328 333 330 327 329 329 328 327 326 326 326 325 324 323 323 323 323
297 298 298 298 298 298 298 298 298 299 300 301 302 304 304 304 304 307 308 307 307 307 307 308 307 306 305 305 305 304 306 307 306 306 307 306 306 305 306 305 304 310 314 309 309 310 308 311 314 311 311 312 312 311 311 313 312 309 311 312 312 317 322 319 321 325 323 322 324 326 327 328 328 326 324 326 327 325 326 325 325 324 323 323 322 322 322 322
297 297 297 297 298 298 299 299 299 299 300 302 303 304 304 304 305 307 307 306 306 306 307 309 306 305 306 305 305 305 306 308 307 306 307 306 306 306 306 306 305 307 310 313 315 312 309 313 316 312 311 312 312 312 310 312 314 312 311 312 311 315 321 317 316 320 323 324 325 325 328 327 327 327 325 325 326 325 325 324 324 323 323 322 321 321 321 321
298 298 298 299 298 298 299 299 299 300 301 302 304 305 304 304 305 305 306 305 306 306 308 311 309 306 306 306 306 305 305 308 307 306 309 309 307 308 307 306 306 305 309 314 316 314 314 318 317 312 312 313 311 311 311 311 314 312 310 312 313 314 318 320 320 319 319 326 327 324 328 330 329 330 327 326 327 326 325 324 323 322 322 321 320 320 320 320
299 299 300 300 299 299 299 300 300 301 302 303 304 304 304 305 305 304 304 305 305 306 308 312 314 311 307 305 306 305 304 308 307 306 309 309 308 309 307 306 307 305 306 309 311 314 315 316 318 315 313 314 311 310 312 310 310 313 311 312 315 316 316 319 322 318 317 325 328 327 328 328 329 328 327 328 327 326 325 323 323 322 321 320 320 319 320 319
300 300 301 301 300 299 299 300 301 301 302 303 304 304 304 304 304 304 304 305 305 306 309 313 315 314 310 307 306 305 305 307 307 307 308 307 309 309 307 308 308 306 306 307 310 316 315 314 319 317 313 314 313 311 313 312 310 312 312 311 315 318 317 316 318 320 324 328 328 330 329 328 329 326 326 328 326 325 325 323 322 322 320 319 319 319 319 319
300 300 301 300 300 300 300 301 301 302 303 304 304 303 303 303 303 304 304 304 304 306 310 313 313 312 314 313 309 305 304 306 306 307 308 307 308 309 307 308 309 308 307 306 310 314 312 312 319 322 316 312 314 312 312 312 311 311 312 312 313 314 315 316 317 319 329 333 329 330 331 330 329 325 324 326 324 323 324 322 322 320 318 318 318 318 318 318
300 301 301 300 300 301 301 301 302 302 303 303 302 302 302 303 303 304 304 304 305 305 308 310 310 310 313 314 314 309 304 305 306 306 307 306 308 310 308 307 309 308 307 307 309 311 312 315 321 323 317 312 315 315 312 312 313 313 314 314 314 315 315 317 316 315 325 334 330 331 335 331 327 325 325 324 323 322 322 321 320 318 318 318 318 318 318 317
301 301 301 300 301 301 302 302 302 302 303 303 303 302 303 304 304 305 305 305 306 306 306 308 308 310 311 313 316 313 306 304 305 307 308 307 309 311 309 308 309 308 309 310 309 312 318 320 317 319 320 317 315 315 312 313 313 313 314 313 316 319 317 318 320 319 324 328 326 330 338 332 325 325 325 323 322 322 321 320 319 318 317 317 317 317 317 316
302 302 301 301 301 301 302 303 303 303 303 303 303 303 304 305 304 304 305 305 306 307 307 309 310 311 312 312 314 315 311 306 305 307 310 309 309 309 308 308 308 308 310 309 309 313 317 317 316 318 324 324 320 316 312 312 313 315 315 313 315 320 320 324 331 330 328 330 329 331 335 331 325 323 323 322 321 321 319 318 318 317 317 317 317 316 316 315
302 303 302 301 301 301 302 304 304 304 304 304 304 305 305 305 305 305 305 305 307 307 309 311 311 311 313 313 314 316 315 311 307 307 310 310 309 308 307 308 308 309 309 310 312 313 312 316 317 316 319 320 318 315 312 310 314 321 323 317 315 321 322 322 325 326 327 329 329 329 330 328 325 323 321 321 320 319 318 317 317 317 316 316 315 315 315 314
302 303 303 302 302 302 302 303 304 304 305 305 305 306 306 306 306 306 306 306 307 307 308 310 311 311 312 314 315 315 315 315 310 307 310 314 314 310 306 306 308 309 308 310 312 311 314 321 319 316 322 323 321 324 325 320 317 319 321 317 315 317 319 320 320 320 322 323 324 328 331 327 324 323 321 320 319 318 317 317 317 316 316 315 314 314 314 313
303 303 303 302 302 302 302 302 303 303 304 305 306 306 306 307 307 307 307 308 308 307 308 310 311 312 312 314 317 317 316 316 316 314 316 320 323 316 307 305 308 307 308 311 311 312 320 324 320 322 326 326 329 333 329 321 316 315 316 316 316 316 320 325 325 323 323 323 324 327 327 326 325 324 322 320 318 317 317 316 316 316 315 314 313 312 312 312
304 304 303 303 303 303 303 303 303 304 304 305 306 306 306 307 307 307 309 309 309 309 311 312 312 313 314 313 315 318 317 318 321 321 319 320 323 321 312 307 306 307 312 315 312 315 321 318 320 329 327 321 326 328 322 320 321 320 320 317 316 319 321 323 324 325 325 324 324 324 324 327 326 324 322 320 317 316 316 316 316 315 314 313 312 312 311 311
304 304 303 304 305 304 304 304 303 303 304 305 305 305 306 306 307 309 311 311 310 311 313 315 314 313 312 311 314 318 320 321 320 320 320 321 324 326 320 313 310 310 315 317 314 318 322 316 319 329 328 320 322 325 325 326 325 323 326 326 323 322 320 320 324 326 325 323 326 324 324 326 325 322 321 318 317 316 316 315 315 315 314 313 311 311 310 310
305 305 304 305 305 305 305 305 305 305 306 305 305 306 306 308 309 309 310 311 313 313 313 314 314 313 311 312 316 320 321 320 318 318 320 322 324 326 324 319 317 315 316 317 315 316 320 319 321 329 331 325 323 325 324 326 327 323 322 326 328 325 321 327 331 327 326 327 327 323 323 324 323 321 319 317 316 316 315 315 315 314 313 312 311 310 310 310
305 305 305 306 306 306 305 306 307 308 307 307 308 308 308 310 311 309 309 310 313 314 314 314 313 312 311 314 320 321 318 319 320 318 320 323 323 323 323 321 320 320 319 316 314 314 317 320 324 332 335 326 323 326 325 323 326 327 322 321 325 326 326 329 329 327 328 327 322 321 323 323 320 318 317 316 316 315 315 315 314 313 312 311 310 310 309 309
304 305 305 306 307 306 306 306 306 307 308 308 309 310 309 310 310 309 309 309 310 312 313 312 312 312 313 318 321 319 317 319 321 318 318 322 321 319 321 318 318 325 326 318 316 319 323 323 322 329 335 327 321 326 329 323 323 327 326 322 321 324 326 325 324 325 328 325 321 321 323 321 318 316 315 315 315 314 314 314 314 313 312 311 310 309 309 309
303 304 305 305 306 306 307 306 306 307 308 308 308 309 309 309 308 308 310 310 308 310 310 310 311 313 316 319 319 317 316 317 318 316 317 319 317 316 318 316 315 321 325 322 323 325 325 324 322 325 330 326 321 323 326 324 322 325 323 318 317 319 320 321 322 322 322 321 321 322 322 319 316 315 315 315 314 314 314 314 313 312 311 310 310 309 309 309
Wind_Speed
15 15 15 15 14 14 13 13 13 12 12 13 14 14 14 14 14 14 14 14 14 13 12 12 13 13 14 15 16 16 17 18 18 20 26 25 19 15 13 13 15 18 18 16 14 11 11 12 11 10 11 10 8 8 10 11 8 5 2 2 3 3 4 4 5 4 3 6 6 16 21 8 3 6 17 16 19 24 20 17 17 16 22 28 29 35 34 32
15 15 15 15 15 14 14 14 13 12 12 13 14 14 14 15 15 14 14 14 14 14 13 13 12 13 14 14 14 15 17 17 19 24 27 21 16 17 17 16 18 20 19 17 14 11 11 11 10 11 12 10 7 7 8 9 11 7 2 2 4 3 5 5 6 6 5 7 8 16 21 11 2 4 13 10 10 19 20 18 26 31 30 31 33 34 33 34
17 16 16 16 16 14 14 14 14 13 12 13 14 14 15 15 15 14 14 13 14 14 13 13 13 13 14 13 12 13 15 15 19 26 24 17 16 18 19 19 20 21 20 18 15 12 11 9 10 12 12 8 7 8 7 6 8 9 5 2 5 5 6 10 12 14 15 11 8 13 17 13 6 5 10 10 9 11 14 19 26 32 35 36 35 35 35 32
19 18 17 16 16 15 14 14 14 14 13 13 14 14 15 15 15 14 14 13 13 14 13 13 13 13 13 12 10 11 10 11 15 19 15 12 17 19 21 22 21 21 20 18 16 13 12 10 9 10 9 5 6 6 5 7 6 6 7 4 5 5 4 12 16 18 20 12 8 11 11 11 5 6 13 16 11 3 9 25 34 39 41 40 37 37 35 30
20 19 19 18 17 16 15 15 15 14 13 14 15 15 15 14 15 14 14 13 13 13 12 13 13 13 13 9 8 8 3 5 4 5 4 9 17 20 23 23 23 23 20 19 16 13 13 11 8 7 6 3 2 3 5 11 9 2 4 6 7 6 4 13 19 18 17 11 9 9 6 6 2 8 15 13 7 4 10 21 37 48 47 43 42 38 34 31
21 20 19 19 18 17 17 17 16 15 14 14 15 15 15 14 14 14 14 13 13 14 12 11 12 13 12 7 6 7 6 2 3 7 5 7 13 20 23 23 25 24 20 19 17 15 15 13 9 6 5 2 3 4 5 9 9 4 4 5 9 11 7 15 21 19 17 11 9 7 5 3 4 6 7 3 5 9 16 23 34 43 44 44 42 38 36 32
21 22 21 20 19 18 18 18 18 17 15 15 15 15 15 14 14 13 14 13 13 13 12 11 11 13 11 6 6 9 12 12 6 6 4 4 9 18 25 26 27 26 23 21 19 17 16 14 12 9 5 2 4 6 8 8 7 6 4 3 10 13 11 19 23 23 23 17 16 13 5 2 5 4 3 9 12 18 25 31 34 35 38 40 39 37 36 32
21 22 23 22 21 19 19 19 19 18 17 16 15 15 15 14 13 13 13 13 13 13 12 11 10 12 10 4 5 7 16 20 13 7 4 3 4 14 24 28 28 28 25 23 21 19 16 15 15 11 5 3 4 4 6 6 5 5 5 6 9 12 15 22 24 26 27 22 21 12 0 5 10 10 9 10 20 27 31 34 34 35 35 35 36 35 35 32
23 23 23 23 23 21 19 19 20 19 18 17 16 16 14 13 13 13 13 12 13 12 11 10 10 11 7 4 5 5 18 25 19 12 5 3 6 10 19 27 28 28 27 25 22 19 17 16 18 14 6 5 5 3 3 2 4 5 8 10 9 11 16 18 19 22 23 21 17 3 6 11 18 15 10 11 23 31 33 34 33 34 33 32 33 33 34 32
24 23 23 23 24 23 21 19 19 20 19 18 17 18 15 13 13 13 13 12 12 12 10 9 9 9 6 5 4 4 17 23 21 19 11 5 5 9 14 22 25 26 26 26 23 20 20 18 17 16 8 4 5 4 3 4 4 5 8 10 10 14 17 14 13 18 18 19 15 1 7 9 12 7 5 13 25 32 34 33 31 31 32 33 32 30 31 29
25 24 23 22 22 23 22 20 19 19 20 18 17 17 15 13 11 12 13 12 12 11 10 8 9 9 7 6 6 9 15 15 17 23 20 13 6 7 13 19 22 23 23 24 24 23 22 18 13 11 7 4 3 2 3 4 6 9 8 7 10 12 13 12 9 12 10 11 12 3 6 3 4 4 10 19 26 32 35 31 28 31 32 33 31 29 27 26
25 25 24 23 22 22 23 22 20 19 20 19 17 15 15 13 10 12 13 12 11 10 10 9 9 10 8 9 18 21 15 10 12 20 24 20 13 8 11 16 19 21 20 21 23 23 22 19 13 10 6 3 2 1 3 6 8 11 7 3 7 6 6 9 7 9 8 4 9 2 5 3 5 6 19 25 28 31 31 29 28 31 31 30 30 29 26 25
24 25 25 24 23 22 22 23 21 19 19 20 18 16 16 14 10 11 13 13 11 10 10 9 9 10 9 13 27 28 16 10 11 15 21 22 17 12 11 14 17 19 19 19 20 21 21 20 17 15 9 2 1 2 6 10 9 9 4 2 4 6 5 7 4 9 9 5 8 2 1 5 4 9 24 28 31 31 26 25 27 29 30 31 32 30 27 25
23 24 25 25 24 23 22 23 23 20 19 20 19 17 17 14 11 12 13 14 12 10 10 8 9 9 9 18 29 27 21 20 19 16 17 20 18 14 13 15 16 16 16 16 15 15 17 18 18 17 12 7 6 7 8 8 5 3 1 0 0 1 5 7 1 8 7 6 7 5 1 5 1 10 23 28 32 34 25 21 24 28 30 32 32 29 27 25
22 22 23 24 25 24 21 21 23 21 18 19 18 18 19 15 11 11 12 14 12 10 10 7 8 8 10 22 24 18 21 26 24 17 14 17 17 15 15 15 16 15 14 14 12 10 12 14 16 13 9 9 7 4 5 4 3 2 1 3 2 3 5 8 2 9 8 3 5 7 0 4 3 12 24 28 31 31 24 22 25 28 31 30 29 28 26 23
22 22 22 23 24 24 23 21 22 22 19 18 17 18 20 16 12 11 12 13 11 8 9 5 4 5 7 14 13 9 15 22 24 21 17 17 18 17 17 15 16 16 16 14 12 10 10 11 14 12 8 5 3 3 4 3 4 3 1 2 2 2 3 4 3 6 6 2 2 4 3 2 3 13 23 26 28 28 23 23 27 28 30 29 28 29 27 24
21 22 22 22 22 23 24 22 20 21 20 18 17 19 20 17 12 12 12 12 9 5 5 3 1 4 9 9 8 7 9 13 18 21 21 21 20 19 17 15 14 14 16 16 14 13 11 11 11 8 7 5 3 5 2 3 4 2 0 2 2 3 3 2 3 5 2 4 1 2 3 3 5 12 21 23 23 23 23 26 29 28 29 30 29 28 27 27
21 21 22 21 21 21 22 22 20 20 20 17 17 19 20 17 15 15 14 12 8 3 3 7 4 2 10 13 10 8 7 7 10 15 20 22 22 21 18 14 11 9 12 13 13 14 13 11 8 3 3 5 4 6 5 6 5 3 2 2 2 2 2 3 3 3 2 4 3 4 3 2 5 12 20 21 18 19 24 27 29 28 29 30 28 27 28 28
21 21 21 21 20 20 20 20 19 20 21 17 17 19 19 18 16 15 14 13 11 5 1 9 14 6 4 5 4 6 9 9 7 10 18 21 21 20 17 15 10 7 7 6 7 13 12 6 6 6 5 7 7 7 7 6 7 7 5 4 3 3 3 4 5 5 3 5 3 5 3 1 7 10 13 18 13 12 19 23 24 26 28 28 27 28 29 28
20 20 21 20 19 19 18 18 18 18 19 17 16 17 14 12 9 7 8 12 18 17 9 10 21 19 13 8 2 6 8 8 7 10 15 17 20 18 16 15 10 6 5 5 5 11 12 6 6 8 7 7 7 7 8 6 7 6 4 4 4 3 4 4 4 5 2 5 1 4 6 4 1 3 8 22 18 6 9 15 16 21 26 26 27 29 29 29
20 20 20 19 18 18 17 16 17 17 17 16 15 13 9 3 2 2 4 8 15 20 20 18 20 25 28 22 14 15 12 6 8 11 14 15 18 16 14 12 7 4 5 6 5 7 11 8 7 7 6 7 7 8 9 7 5 4 4 4 3 3 4 5 4 4 2 4 3 4 10 7 3 3 8 20 20 9 11 16 16 21 25 27 28 28 28 28
19 19 19 18 17 16 16 15 15 16 16 15 14 13 10 6 3 3 6 8 14 17 20 21 22 28 33 30 25 20 12 8 11 12 14 17 18 14 13 10 6 3 4 6 5 4 7 7 5 6 6 7 7 7 9 7 6 4 4 4 2 4 3 5 5 5 3 4 1 3 10 7 4 5 8 13 15 14 20 23 23 27 27 26 26 25 26 29
19 19 18 17 16 15 15 14 14 16 16 15 14 11 9 8 7 8 7 7 14 18 19 19 22 29 33 30 24 17 10 9 11 12 14 18 19 17 14 9 5 5 5 6 6 6 5 5 6 7 6 8 5 6 9 6 5 4 4 5 3 4 3 1 4 5 5 3 5 7 9 6 4 6 5 8 12 13 16 22 25 27 27 24 24 26 29 32
18 17 17 16 14 13 13 12 13 16 16 15 12 8 8 10 9 9 7 5 8 12 16 19 21 27 32 27 17 13 15 14 12 12 14 16 18 17 12 9 8 6 6 6 7 6 4 5 9 10 7 8 6 6 8 6 4 3 5 6 4 4 5 3 2 1 6 4 6 9 7 2 4 8 5 6 10 9 10 17 21 22 25 26 26 28 30 31
15 14 14 13 11 11 11 11 14 16 15 13 10 5 3 4 3 2 3 3 5 6 10 15 18 25 31 23 13 12 12 15 19 18 13 14 18 14 8 10 9 6 7 7 6 5 5 5 10 11 7 8 7 6 8 7 4 3 4 8 7 6 5 2 1 3 6 2 2 5 4 2 2 8 7 5 7 8 6 9 17 22 24 26 28 30 28 28
12 12 12 11 10 8 9 10 13 14 11 9 9 5 3 4 2 5 5 2 5 3 3 9 12 15 19 18 17 13 3 10 20 21 15 12 18 16 8 6 5 5 7 6 3 3 4 5 8 10 8 8 7 6 7 8 6 3 6 7 7 7 6 3 2 2 3 2 5 3 4 1 3 6 8 7 7 10 8 7 15 23 22 22 26 29 28 27
11 10 10 10 8 7 9 7 6 7 6 4 8 8 2 5 0 6 5 2 4 5 5 8 12 5 9 19 24 15 1 6 13 18 21 16 16 18 10 4 3 4 5 5 3 2 6 8 7 9 9 7 8 6 6 9 7 4 4 7 8 7 6 4 3 3 3 3 4 2 5 2 3 5 7 8 8 10 12 9 11 15 16 17 23 27 27 26
10 8 9 8 5 6 9 7 4 3 2 3 7 9 4 6 6 7 3 1 0 5 3 7 12 4 6 21 30 20 4 3 7 14 24 19 16 16 9 5 6 5 5 6 5 3 5 11 8 9 9 7 7 5 7 10 6 4 5 10 8 8 7 6 5 5 3 1 4 2 6 3 2 3 4 5 6 6 8 9 9 11 15 17 22 27 25 24
8 7 7 5 3 5 8 6 3 3 5 7 9 10 8 3 10 5 1 1 2 2 1 6 9 4 9 17 24 22 8 1 3 15 25 20 16 12 5 8 8 4 6 5 5 3 3 12 12 9 8 7 6 5 9 11 6 4 7 7 3 4 4 4 6 3 1 1 5 6 6 3 1 2 3 5 5 4 3 4 8 15 19 18 21 27 25 23
8 6 5 4 3 4 5 5 4 4 7 8 7 8 6 7 9 2 1 1 1 2 3 5 7 8 14 12 10 15 8 4 1 17 22 15 16 11 4 10 8 3 5 2 5 5 4 11 14 8 7 7 8 6 8 11 7 5 7 6 3 1 2 2 2 3 2 4 5 8 7 4 2 3 5 4 5 9 7 4 8 14 19 19 21 26 26 24
8 5 4 4 3 3 4 4 3 3 6 7 5 4 4 7 2 0 3 2 2 1 3 3 4 9 14 10 6 9 6 4 2 12 13 7 11 10 5 9 7 4 5 3 5 7 5 6 7 6 9 9 8 5 6 9 7 6 5 5 2 2 3 3 2 3 3 6 6 7 9 6 4 5 4 3 5 11 11 8 10 13 18 19 20 24 26 25
9 5 4 4 4 3 4 3 3 4 6 6 3 2 5 3 1 1 3 5 2 1 2 2 3 7 11 8 7 8 5 1 2 6 9 6 7 8 6 7 5 6 7 5 4 5 5 5 3 4 11 12 9 4 4 5 5 5 5 6 4 1 0 1 2 1 4 6 5 4 9 6 4 3 2 5 8 10 11 9 11 15 19 19 18 22 25 26
9 7 6 6 5 4 4 4 5 6 6 4 1 3 3 2 0 3 3 4 2 3 5 1 1 7 11 7 6 9 6 2 2 3 6 8 7 7 7 6 6 7 4 4 5 5 4 6 6 4 7 11 11 7 5 4 5 7 5 6 6 4 4 5 3 1 3 3 4 1 5 3 2 1 2 5 10 11 14 15 14 16 19 18 18 21 23 24
8 8 6 6 7 5 4 5 6 6 6 2 2 1 2 1 1 1 1 2 4 5 5 4 2 7 9 5 4 8 5 2 3 4 5 8 8 7 8 7 7 6 4 5 5 6 7 6 7 7 4 9 11 7 7 6 5 6 5 6 5 4 5 4 4 3 3 2 3 2 2 2 1 1 3 5 13 16 19 19 17 17 19 20 20 20 22 22
9 8 7 5 5 3 4 5 5 5 4 1 2 2 4 2 2 1 1 4 5 6 9 8 1 7 6 3 3 7 5 2 4 3 3 7 8 7 8 7 8 5 5 6 3 4 9 7 5 7 6 9 9 6 8 8 4 4 4 6 5 6 5 2 3 6 4 3 1 1 1 1 1 1 2 10 15 16 19 19 18 18 19 22 21 19 21 21
9 8 7 5 3 3 4 5 5 5 4 2 1 3 2 0 1 2 4 6 6 7 12 7 4 6 4 3 3 6 4 1 3 2 1 5 6 7 7 5 6 7 6 6 3 3 7 5 5 4 7 7 9 10 10 8 5 2 5 7 5 4 6 2 2 2 4 4 1 1 1 1 2 0 1 10 13 12 15 16 18 20 20 21 20 19 20 21
8 6 5 4 3 5 5 5 5 5 5 3 2 2 1 2 2 3 5 8 10 9 7 2 3 3 3 3 3 7 5 1 2 2 1 3 4 6 8 5 6 9 6 5 2 2 5 3 6 5 8 10 11 12 9 10 10 5 6 7 3 3 2 1 2 1 3 3 1 1 2 3 3 1 3 10 12 12 12 12 17 20 20 20 20 21 22 22
7 3 2 2 3 6 6 5 6 6 5 2 3 2 1 2 3 5 8 10 11 9 4 1 1 1 4 4 3 5 5 2 2 3 2 2 2 6 9 5 5 9 8 5 2 2 4 2 6 5 9 8 8 8 5 9 10 5 6 8 5 3 3 1 3 2 2 2 1 1 3 4 3 3 7 12 13 14 14 13 13 16 18 19 21 22 23 23
5 2 4 4 4 6 6 7 8 6 3 1 2 2 1 2 4 6 9 10 9 8 4 1 2 2 2 4 4 4 5 4 3 2 2 2 2 5 9 7 4 8 10 7 4 2 2 2 4 5 7 6 4 4 5 7 5 3 6 7 4 4 4 3 3 3 4 3 2 3 3 4 3 5 10 14 14 15 16 14 12 13 18 20 22 24 24 23
4 3 4 5 7 8 8 8 6 2 1 1 1 2 2 3 4 6 8 8 6 4 3 2 3 3 1 1 1 4 4 4 4 2 1 4 3 4 7 9 6 7 9 8 5 2 1 2 3 4 3 5 4 5 7 7 4 4 6 5 3 2 2 2 1 2 5 4 3 3 3 4 3 5 10 13 13 13 15 13 11 16 21 23 25 26 24 23
5 3 3 5 8 10 9 5 1 1 1 1 1 2 3 4 5 6 10 10 7 5 6 5 3 2 2 2 0 3 4 4 4 3 0 4 4 2 6 9 8 8 7 5 5 3 1 2 3 2 1 5 6 5 6 10 9 7 6 6 5 4 4 3 2 1 3 4 4 5 3 4 3 3 8 10 9 10 14 14 13 19 23 23 25 26 25 24
5 2 3 5 9 9 6 2 1 1 0 1 2 3 5 6 5 4 7 8 7 7 7 5 5 4 3 3 2 2 4 4 4 3 2 4 4 3 8 12 13 12 9 4 4 4 3 3 2 2 3 6 7 4 5 11 10 7 6 5 5 4 5 6 5 3 3 3 2 3 1 3 4 0 6 9 10 13 18 19 18 20 23 24 24 23 23 25
5 3 4 6 9 7 2 1 1 1 1 2 4 6 6 5 3 3 5 6 5 5 5 4 4 4 3 3 2 1 3 4 5 5 4 4 5 7 12 17 16 12 8 5 3 4 3 2 1 2 3 4 5 4 1 4 6 5 3 3 5 5 5 6 5 4 4 3 3 3 0 3 2 3 9 13 15 17 19 23 24 22 22 24 24 22 24 27
5 5 5 6 7 3 1 1 1 1 2 3 4 5 5 5 5 6 6 6 5 3 2 3 4 4 3 2 1 2 3 3 5 6 5 3 6 10 14 18 16 9 6 6 6 5 4 2 2 1 2 3 3 3 2 1 3 3 3 3 5 6 7 5 3 4 3 4 5 5 3 3 2 7 12 15 16 15 18 25 28 26 23 23 24 25 27 28
3 4 4 4 4 4 3 2 2 2 3 5 5 5 5 5 8 13 12 10 10 7 4 4 2 2 3 2 2 3 2 4 4 6 5 2 3 6 11 18 15 9 7 11 14 12 6 3 3 3 3 3 3 4 3 4 3 1 2 4 4 7 9 5 3 5 3 4 5 5 3 2 5 11 13 14 13 14 17 24 28 29 27 25 27 29 29 29
1 1 1 2 4 7 8 6 5 3 3 4 4 3 4 4 6 13 14 12 13 11 7 4 4 5 4 4 3 3 2 2 3 4 2 2 3 3 9 18 18 13 11 15 20 14 3 2 4 5 6 6 6 6 4 3 4 2 3 6 4 5 7 7 5 3 4 5 3 3 5 7 9 12 13 14 15 14 16 20 24 27 28 28 29 30 30 29
1 0 1 1 3 6 7 8 6 5 4 4 2 3 5 6 6 6 6 5 7 6 3 1 2 2 4 5 3 3 4 4 5 4 1 2 3 4 5 14 18 18 16 16 19 12 4 3 6 5 3 3 4 4 3 2 4 4 4 7 7 6 7 7 4 5 6 7 2 3 9 13 12 12 13 15 15 14 15 20 23 26 28 29 29 30 30 30
1 1 2 2 2 2 3 5 7 7 7 6 3 2 6 7 5 3 3 4 7 7 3 3 3 4 6 5 1 1 3 4 5 3 1 1 2 5 4 1 6 13 15 12 13 9 5 4 6 4 3 3 3 3 4 3 4 3 3 3 4 6 9 9 6 6 8 7 5 9 13 13 14 15 15 15 16 17 18 23 26 27 29 30 30 30 31 31
2 2 2 2 3 4 5 8 7 6 7 6 3 3 5 5 4 2 3 4 6 6 3 3 4 8 10 7 0 2 2 2 2 2 1 1 3 3 2 3 3 2 8 8 7 5 4 3 5 5 4 6 7 6 6 4 4 5 6 4 3 2 7 6 4 5 7 4 6 15 14 7 7 11 12 15 21 25 25 27 28 28 30 31 30 30 31 31
3 3 4 4 5 8 10 9 5 4 4 3 3 4 3 2 3 3 4 2 2 5 3 3 4 7 7 7 2 3 1 4 4 1 1 2 1 1 1 1 2 3 2 6 5 2 3 3 2 5 5 6 6 6 8 5 3 6 6 8 8 6 4 5 4 6 8 7 8 14 11 3 3 8 13 19 26 28 26 27 27 29 32 33 31 30 31 32
4 4 6 6 4 5 6 4 2 2 2 1 2 2 2 2 3 4 4 3 4 4 2 2 6 6 5 6 5 3 1 5 5 1 2 4 3 2 2 2 2 1 2 3 3 1 4 2 1 4 5 4 5 5 7 6 4 8 7 9 8 5 2 1 1 3 7 11 12 11 7 4 6 12 16 19 24 25 25 26 27 28 32 34 33 32 32 33
5 3 4 5 4 3 3 2 2 2 1 1 2 2 3 3 3 4 3 3 3 3 1 3 4 4 4 5 4 5 5 3 1 1 2 6 9 10 10 9 8 5 1 2 2 2 5 6 2 3 4 2 5 4 6 6 4 2 3 4 3 1 1 0 2 1 8 15 13 7 6 9 12 16 17 16 19 22 25 29 30 31 32 32 32 34 33 33
Wind_Direction
300 301 302 301 301 302 302 304 303 305 305 303 305 308 312 310 306 307 311 314 312 307 303 297 286 282 277 268 264 260 259 257 253 249 246 243 233 229 225 211 202 208 211 202 203 213 215 213 208 202 197 191 203 205 197 207 206 195 133 164 229 198 203 203 205 213 226 285 320 326 337 2 319 63 100 110 105 103 107 105 114 131 136 142 149 151 153 156
297 297 297 297 299 298 298 299 299 302 301 302 306 308 310 311 308 309 310 311 312 310 310 306 296 292 282 271 269 266 264 264 262 254 246 246 239 224 218 208 200 209 211 203 206 214 215 208 196 190 190 191 202 196 193 206 199 191 135 179 225 199 222 229 237 275 282 292 322 317 327 350 276 137 117 112 96 101 100 102 113 118 127 136 142 148 153 156
295 295 294 295 297 296 295 296 298 300 299 301 304 307 309 310 310 310 308 308 310 310 312 311 306 303 289 274 271 269 270 276 274 264 256 257 246 224 215 207 199 208 211 206 211 219 215 195 184 185 186 199 203 192 192 191 191 199 194 215 243 217 241 267 266 274 278 286 318 312 323 338 294 192 140 126 113 110 118 128 125 125 133 138 142 148 153 155
292 294 293 293 292 293 294 295 296 296 297 298 300 305 306 308 310 309 309 307 307 309 310 308 307 304 293 279 271 268 281 301 287 271 267 255 237 222 213 205 198 206 209 206 211 215 209 181 171 180 183 214 216 207 211 196 193 197 192 197 232 216 231 271 270 271 278 289 305 306 327 338 315 173 152 135 122 122 156 148 142 141 142 142 145 149 154 157
286 289 292 293 292 290 291 292 292 292 293 293 296 300 303 308 309 310 312 309 306 304 304 306 308 305 293 279 266 256 274 331 283 226 225 219 221 218 208 201 197 204 206 201 202 201 199 185 172 175 180 222 220 215 236 213 209 212 216 206 223 235 242 272 275 275 283 294 297 308 337 333 349 153 157 144 132 169 180 160 149 147 148 149 150 152 156 158
281 281 284 288 290 289 289 290 290 290 290 290 294 298 303 307 308 311 311 309 308 304 302 301 307 309 295 274 256 223 196 229 164 154 168 194 214 212 200 196 194 199 202 196 196 192 195 194 190 187 170 196 208 201 245 229 214 238 267 226 238 244 241 270 275 277 282 289 290 292 308 333 86 144 158 61 48 136 156 153 146 145 148 150 152 154 155 159
281 278 276 278 281 284 285 287 289 288 287 289 293 298 301 303 307 312 309 310 307 306 307 299 306 311 299 275 243 218 218 230 204 168 177 177 211 204 192 191 192 197 200 197 196 193 197 199 200 196 160 175 208 209 249 254 220 219 266 263 262 259 253 270 276 278 278 277 281 279 293 16 114 135 64 56 90 126 140 142 142 142 145 148 151 154 155 160
285 279 276 274 273 275 276 279 283 284 286 287 291 297 299 300 306 308 308 311 308 310 312 306 313 308 302 278 238 229 231 226 211 203 193 117 172 190 189 188 191 197 200 201 199 195 198 199 201 195 174 211 200 195 241 261 243 215 240 261 271 269 266 274 277 277 275 274 281 282 277 98 109 100 69 83 112 125 134 138 140 142 144 148 150 153 156 162
284 281 278 275 271 269 270 273 277 280 284 285 291 296 294 296 305 311 310 309 308 310 309 311 316 309 309 271 240 247 239 227 217 219 209 118 120 154 182 187 191 196 201 206 204 202 202 200 202 193 187 227 216 233 220 216 255 206 221 250 264 269 271 276 275 273 275 275 280 301 118 121 110 94 70 99 121 128 133 136 141 144 144 148 151 153 157 162
282 281 280 279 274 267 266 269 271 275 280 282 291 295 290 290 304 314 310 307 308 308 307 311 310 307 305 257 224 232 243 236 229 228 226 215 137 127 165 185 194 198 201 205 206 208 206 204 206 201 211 241 219 245 205 185 247 236 233 251 259 269 275 273 269 270 274 278 276 181 144 153 120 96 84 117 128 132 134 137 144 145 144 150 155 154 158 163
280 280 279 281 278 269 263 264 265 269 274 277 286 291 287 286 301 313 310 307 307 304 302 302 303 298 277 241 223 222 237 238 229 227 229 231 208 157 166 181 194 202 206 208 208 209 208 208 198 190 213 235 234 259 223 236 287 291 280 273 268 274 278 265 254 258 261 279 272 179 132 159 74 100 138 135 136 137 137 139 143 145 148 154 155 157 159 156
279 277 278 280 282 275 265 260 260 263 268 273 279 283 284 286 298 309 308 307 302 300 298 297 302 291 280 256 236 227 224 228 226 223 226 229 226 203 184 184 192 201 211 216 215 210 212 214 193 179 202 213 247 276 268 305 335 319 305 282 286 319 304 257 225 227 222 260 268 191 105 343 360 119 138 139 141 140 139 139 141 144 148 148 148 153 153 148
283 278 276 276 280 278 268 258 255 258 262 269 274 277 281 285 297 306 307 305 297 294 288 288 291 285 292 263 240 232 226 230 236 222 218 224 227 218 202 196 195 199 210 220 221 218 221 225 213 209 223 221 225 267 302 322 341 329 325 164 284 349 317 262 208 200 203 243 257 192 118 302 336 137 142 144 146 143 140 138 140 143 145 144 144 148 147 149
290 283 278 275 275 276 273 261 252 252 256 264 271 275 278 282 294 302 304 299 292 288 281 278 280 278 277 258 250 248 244 243 245 227 208 215 223 224 208 197 201 203 206 211 217 227 233 233 227 225 237 250 260 291 317 332 345 325 321 358 318 119 267 284 244 176 186 245 220 139 273 265 229 148 148 151 150 145 143 138 140 143 142 142 143 144 148 153
293 288 281 276 274 274 275 265 253 249 251 258 266 273 276 280 289 296 301 293 285 287 282 281 277 266 267 266 266 264 250 245 241 222 200 207 217 220 205 198 208 209 205 204 201 221 240 229 219 219 236 250 254 298 342 343 349 37 143 311 341 163 256 302 288 174 172 234 180 128 246 253 191 166 156 155 154 147 141 138 141 142 141 142 142 144 147 147
292 289 284 277 274 272 272 268 255 247 247 251 259 268 272 278 284 287 291 281 278 286 276 275 266 241 265 276 272 258 247 242 233 222 211 208 211 207 200 205 215 215 212 202 191 213 237 214 203 208 218 226 183 111 41 343 324 6 146 228 260 183 245 307 293 212 181 131 136 131 149 211 202 176 162 158 156 146 138 139 140 140 141 143 143 142 139 138
293 289 285 278 273 270 269 270 259 247 246 248 254 261 268 276 279 278 279 269 268 287 260 207 139 248 254 266 265 243 238 236 234 233 222 209 209 207 205 212 214 220 221 209 204 215 217 195 189 206 212 195 135 122 99 255 250 317 30 191 234 192 183 250 287 271 174 121 168 105 119 212 198 170 163 164 163 147 137 139 139 140 142 142 142 140 138 137
295 291 285 279 273 269 268 271 264 250 246 246 252 258 267 276 276 273 268 255 249 271 246 200 158 310 258 252 262 259 248 249 249 240 224 213 212 214 215 212 203 213 220 217 221 214 204 192 172 163 193 180 162 152 181 214 193 179 165 147 249 219 180 218 249 262 114 109 147 113 96 243 180 168 160 160 169 152 139 139 137 140 142 140 141 138 137 136
296 292 288 282 272 266 263 267 266 252 243 243 249 257 270 278 276 274 261 239 217 195 212 201 190 190 281 276 283 277 264 262 269 237 219 214 213 216 216 212 211 220 207 195 215 201 188 176 159 180 205 193 185 175 186 189 157 166 174 147 165 202 231 233 242 255 138 105 111 132 131 169 168 176 143 135 157 154 134 131 134 140 141 139 137 136 137 135
296 293 290 284 272 265 258 260 262 250 238 238 248 259 276 281 268 272 257 233 224 223 240 222 206 219 262 286 321 311 278 251 258 226 208 207 207 206 207 210 214 224 206 157 189 190 173 175 200 199 196 180 173 166 173 178 161 154 145 148 169 185 260 264 259 288 99 107 8 101 90 31 160 183 121 134 150 157 121 123 133 138 135 134 135 135 136 134
295 293 291 286 274 264 257 256 257 247 234 233 246 255 265 270 201 339 319 267 251 243 246 248 236 244 262 265 270 299 307 276 249 212 191 191 195 194 195 196 182 204 218 160 157 173 172 199 215 190 171 158 157 159 169 187 181 160 150 167 206 201 245 269 272 306 56 95 339 65 81 38 22 107 127 141 147 156 151 142 141 134 128 133 136 135 135 131
293 291 291 286 273 262 256 253 253 244 230 228 242 249 256 267 250 302 325 290 282 271 255 253 253 255 260 261 267 283 294 278 256 219 183 177 186 189 178 172 159 187 206 160 149 166 191 216 191 166 158 144 146 159 170 190 188 187 171 152 219 233 242 284 299 330 41 98 349 63 85 67 52 105 135 144 144 151 153 146 141 136 132 136 139 137 133 128
291 290 290 284 270 260 252 249 248 236 222 224 237 247 276 307 296 290 299 285 285 277 258 248 249 252 255 258 264 265 247 243 254 231 191 176 185 185 169 159 161 176 179 176 173 168 202 227 174 161 151 137 143 165 170 188 195 184 161 155 220 221 160 274 306 351 23 89 131 101 88 90 85 91 108 126 130 133 137 134 132 135 135 136 137 135 131 130
291 290 287 280 267 258 252 246 236 224 218 224 237 259 301 322 315 296 287 276 279 271 256 247 245 249 250 252 256 240 225 229 242 226 195 181 183 180 173 162 154 177 189 178 173 170 231 235 163 154 158 153 155 176 173 178 210 201 168 181 201 182 171 190 242 10 36 49 115 102 71 34 134 135 125 103 109 104 105 113 116 125 131 132 133 132 132 134
295 289 285 276 263 258 249 234 221 216 214 220 241 274 317 339 343 261 247 267 268 268 262 243 239 248 245 242 236 221 223 235 238 226 200 187 183 170 165 171 164 187 184 158 158 180 250 239 161 156 176 172 165 187 185 172 189 225 213 205 182 155 175 167 52 55 60 21 231 119 90 314 203 164 157 134 120 107 93 107 118 125 130 133 133 134 136 135
299 289 284 267 257 249 231 221 214 212 209 224 250 230 132 47 59 165 172 305 279 215 194 203 210 239 230 209 201 196 216 255 241 228 205 190 188 175 159 171 168 179 168 150 163 181 214 213 171 168 174 174 184 205 195 168 158 220 235 200 163 141 156 147 74 64 98 212 246 162 134 203 233 197 169 151 145 132 134 146 131 129 135 136 132 136 138 132
307 294 285 265 250 221 207 208 197 196 189 224 240 200 143 357 138 164 166 320 283 177 140 179 185 196 196 185 181 170 127 241 223 223 206 184 186 188 183 170 149 163 153 141 198 205 172 182 189 184 174 178 200 209 191 163 151 224 218 141 144 156 168 176 178 207 210 242 269 167 126 137 209 202 172 148 148 147 151 151 128 126 134 133 131 136 138 133
317 305 287 269 245 210 209 198 159 176 201 280 249 218 307 318 183 157 159 305 216 152 125 183 181 162 177 178 175 175 208 188 168 207 200 179 176 189 196 186 151 161 175 160 202 244 163 179 194 183 184 199 197 179 163 159 168 227 156 129 156 177 178 185 191 221 225 243 272 212 123 131 219 204 157 147 158 158 152 142 127 133 139 134 133 135 136 133
324 313 292 274 229 220 224 207 194 266 288 301 275 255 291 251 171 153 190 185 118 155 94 169 180 164 153 162 174 188 211 309 161 182 186 185 183 184 199 190 156 155 209 179 185 242 191 189 190 174 195 203 171 157 156 165 195 201 132 109 142 175 167 178 185 207 197 209 236 199 144 140 219 233 178 172 178 169 151 136 135 141 142 139 135 133 133 129
328 312 300 286 229 214 229 233 247 288 301 300 286 274 269 176 160 138 239 208 144 157 98 148 178 150 144 145 178 200 208 305 254 162 172 189 187 184 176 179 171 162 220 203 177 231 258 195 190 186 205 182 155 169 166 168 180 146 119 87 68 175 54 76 146 108 120 257 237 186 170 143 162 228 199 185 179 161 156 154 147 141 137 137 134 131 131 129
334 311 308 296 249 219 238 264 270 285 302 300 295 278 203 169 166 147 197 273 330 51 77 155 177 139 147 154 175 197 204 288 280 152 162 174 179 187 155 164 184 168 201 225 199 239 272 207 194 186 190 167 146 178 175 167 162 124 115 112 108 299 11 32 360 70 164 247 258 189 168 150 188 224 195 179 170 157 155 156 152 141 135 134 131 130 133 133
337 320 319 305 275 257 258 287 296 277 296 306 296 201 164 151 323 199 261 319 3 345 326 184 166 144 160 171 169 180 182 227 271 160 161 155 168 190 172 171 182 166 197 206 175 219 245 248 260 186 186 173 152 168 175 168 162 132 118 129 145 235 311 210 231 181 207 242 281 193 159 158 221 247 167 164 162 152 144 140 142 138 134 132 129 132 134 136
332 322 316 302 290 289 281 290 285 274 290 301 246 204 162 97 225 197 278 327 45 341 318 308 189 161 164 176 176 178 181 197 221 174 161 156 161 189 200 200 169 148 179 167 148 186 221 275 265 203 190 179 168 169 175 185 175 164 157 149 159 165 168 210 221 223 235 240 315 293 161 183 211 8 343 154 144 130 119 120 130 133 132 131 131 134 134 136
322 315 308 292 288 289 282 280 267 262 278 279 132 181 192 160 228 195 186 318 339 326 314 314 256 170 168 186 171 164 175 228 202 161 150 156 164 188 203 205 180 137 114 149 163 180 189 246 236 200 192 173 176 178 161 150 157 174 158 133 159 177 163 196 200 182 212 217 324 335 173 220 153 26 337 117 122 118 118 124 130 130 130 130 130 133 133 134
320 313 306 294 285 268 246 245 240 244 254 223 103 199 204 197 288 324 39 341 332 326 318 314 196 153 174 205 165 163 172 228 198 155 141 165 173 188 190 197 193 156 122 165 200 176 186 237 244 199 197 171 172 174 146 135 160 185 137 129 191 195 143 119 178 172 164 145 351 347 127 355 64 18 32 110 114 115 120 126 129 128 130 129 129 131 132 134
321 312 307 301 273 230 220 215 218 226 205 155 186 230 219 286 334 345 357 344 329 322 323 322 127 135 179 180 163 180 172 143 176 153 109 165 167 181 186 190 188 171 144 162 197 167 174 248 284 189 199 198 175 166 162 166 175 161 155 178 202 161 126 121 182 135 106 129 161 320 111 85 106 358 97 117 115 119 127 131 133 132 132 131 132 134 134 134
326 314 310 304 242 214 210 204 204 205 182 164 228 239 302 351 14 360 334 331 323 314 319 327 124 131 180 169 165 178 165 79 154 157 177 177 171 181 189 192 177 178 177 154 179 198 154 223 271 176 189 224 193 173 183 180 161 145 185 187 129 92 113 140 156 51 65 128 227 307 166 171 169 199 161 135 129 136 139 137 138 137 137 137 136 137 137 135
337 334 351 353 213 204 198 186 180 170 150 157 258 273 346 340 354 344 330 331 323 310 309 253 256 99 149 173 182 163 156 169 179 164 179 205 218 189 181 189 177 180 189 156 136 231 146 182 264 199 179 212 190 166 200 198 176 162 178 168 131 158 211 152 160 185 130 135 239 218 189 207 209 190 167 155 151 152 148 144 143 140 139 139 136 138 139 138
1 52 38 48 154 189 182 164 160 151 136 173 250 282 359 311 293 313 331 336 321 307 311 320 323 359 138 176 179 150 147 172 182 162 159 171 232 208 181 177 184 181 178 160 157 227 133 138 266 242 185 176 152 159 204 212 201 112 140 163 159 175 184 164 170 164 141 152 184 163 181 221 211 183 179 171 163 158 151 150 148 138 137 139 139 140 141 142
46 76 51 81 136 158 155 151 147 123 116 193 259 313 333 317 291 299 319 323 317 305 290 311 351 354 316 277 178 155 141 152 170 165 170 180 199 233 197 175 170 174 166 161 177 204 78 142 243 282 212 166 181 206 188 179 176 135 150 178 177 144 136 144 161 116 124 147 160 153 204 237 199 180 185 175 163 158 152 148 141 135 139 143 142 142 143 143
45 58 75 113 137 140 134 133 127 41 343 299 318 295 299 300 287 295 299 288 270 263 266 275 288 281 287 318 318 159 141 141 167 163 167 194 179 222 213 185 159 153 156 166 196 200 130 154 193 284 239 189 221 231 164 165 174 164 169 188 178 147 119 135 216 237 103 128 158 159 197 256 264 195 175 165 156 151 144 137 132 135 141 143 143 144 145 142
21 56 115 131 146 145 127 99 346 49 357 294 280 276 288 289 282 294 299 280 247 241 254 260 250 240 229 226 227 175 146 148 167 168 176 198 188 198 207 190 168 157 157 164 198 194 155 123 156 239 234 213 239 263 178 176 169 155 180 188 158 142 134 149 201 208 95 89 124 119 133 270 289 154 143 145 143 140 137 132 129 135 141 143 144 146 143 138
24 84 118 137 154 156 111 8 310 230 248 262 270 276 282 286 291 297 291 280 249 232 238 243 234 228 225 222 224 162 141 147 165 182 199 209 213 219 202 185 174 161 153 164 185 184 167 124 131 267 293 292 299 334 9 174 144 139 200 172 145 164 156 154 179 165 131 143 125 89 68 256 252 129 126 132 137 136 136 135 133 138 144 145 146 146 141 138
48 75 99 133 156 175 304 352 301 253 270 275 271 277 280 274 262 255 261 263 252 251 263 254 231 223 240 252 215 203 170 149 167 187 197 200 217 221 204 189 184 168 161 182 174 168 188 172 99 83 354 346 333 23 44 220 182 170 193 172 155 140 118 124 135 106 133 193 162 141 197 237 166 133 129 133 136 135 139 142 142 143 146 144 142 142 140 138
53 67 88 134 181 222 247 287 310 295 309 309 297 290 281 266 242 238 244 250 249 249 257 273 320 346 289 289 280 251 190 143 164 189 199 222 247 227 201 194 193 184 187 183 161 153 176 183 130 149 160 155 184 193 197 202 207 211 161 165 157 130 128 140 125 109 166 202 157 151 192 206 144 139 139 140 140 139 144 148 147 147 147 145 140 140 140 139
15 61 85 169 211 228 242 264 279 272 291 301 299 276 244 248 253 246 244 242 243 241 233 258 350 5 312 307 333 317 328 63 106 145 171 247 273 263 205 196 194 191 192 176 158 147 133 165 152 151 172 183 191 211 227 168 162 196 163 160 176 160 134 113 108 149 181 162 168 203 161 144 151 151 150 151 148 146 150 151 150 148 146 143 141 140 140 140
20 164 170 188 219 232 246 253 240 230 251 262 286 292 260 269 290 276 252 244 267 274 228 215 13 11 315 322 339 335 341 12 50 80 72 246 251 298 238 199 194 195 190 172 162 148 89 183 176 120 134 220 212 218 293 63 150 179 164 166 186 176 133 116 142 180 154 136 196 224 152 149 163 165 160 159 154 150 152 152 150 146 143 142 141 140 140 140
6 258 222 216 230 210 223 239 229 230 247 248 253 294 280 284 305 321 299 311 336 351 37 54 2 330 325 321 287 344 359 20 34 34 344 278 305 339 329 209 181 188 182 170 171 156 104 177 185 117 76 351 357 356 2 52 116 83 70 147 181 174 160 159 176 171 152 157 188 178 166 167 171 169 165 160 153 148 148 149 148 145 143 143 142 141 141 142
322 297 262 257 265 255 259 263 256 250 251 243 239 251 264 290 318 335 323 336 344 343 30 64 331 310 321 323 142 99 45 67 47 320 260 31 18 18 32 34 25 162 165 167 185 167 124 183 181 131 90 18 10 13 22 54 111 60 29 21 29 160 163 147 144 137 118 112 155 157 160 164 161 162 157 148 146 144 144 147 147 146 145 145 145 144 144 145
327 318 305 294 275 271 273 275 280 286 275 253 242 251 272 333 360 342 321 322 322 322 14 62 312 300 317 327 23 83 115 156 140 193 173 107 48 24 107 154 296 344 92 161 193 180 133 192 180 112 75 359 345 21 31 24 97 85 41 16 26 38 74 88 111 119 90 75 119 135 133 103 107 130 133 140 145 145 146 149 150 150 150 148 148 148 147 146
318 312 313 309 284 273 275 272 280 292 296 264 225 266 327 345 7 352 311 243 225 276 322 14 319 310 336 355 24 40 282 196 169 189 171 126 100 120 124 148 189 327 34 148 171 120 109 119 55 85 79 331 321 34 38 11 55 83 43 8 14 23 52 112 178 160 129 124 123 125 137 167 152 132 131 142 148 148 150 152 152 153 154 153 153 152 150 148
322 309 322 326 301 289 305 307 281 249 271 283 262 317 327 294 335 2 322 278 262 253 306 22 352 331 349 1 11 356 323 274 236 359 126 116 97 101 99 82 76 74 106 151 100 81 136 135 121 94 104 281 304 26 46 19 26 73 5 348 333 312 188 214 335 60 136 135 137 159 178 163 148 141 142 151 157 157 158 157 155 155 157 156 155 154 152 151